GCR6582 ZPLJ-ZBTJ

Flight info

Callsign GCR6582
Flight time N/A
Altitude 33100
Route CEH W162 KAKMI/K0861S1040 W144 IGNAK/K0856S1070 W179 WFX W81 NSH G212 TEKIL W85 OMDEK
Aircraft A320/M-SDE3FGHIRWY/LB1

Departure

Time 2026-04-20 10:18
Airport Lijiang Sanyi International Airport (ZPLJ)

Arrival

Time N/A
Airport Tianjin Binhai International Airport (ZBTJ)
Time Latitude Longitude Altitude Speed Heading
2026-04-20 09:35 26.67207 100.24595 7182 ft 0 kts 107°
2026-04-20 10:01 26.67207 100.24594 7186 ft 2 kts 107°
2026-04-20 10:01 26.67212 100.24577 7182 ft 2 kts 107°
2026-04-20 10:01 26.67217 100.24560 7185 ft 2 kts 107°
2026-04-20 10:01 26.67222 100.24542 7183 ft 2 kts 107°
2026-04-20 10:02 26.67227 100.24525 7181 ft 2 kts 100°
2026-04-20 10:02 26.67227 100.24507 7178 ft 2 kts 71°
2026-04-20 10:02 26.67219 100.24493 7179 ft 2 kts 15°
2026-04-20 10:02 26.67207 100.24489 7177 ft 0 kts 16°
2026-04-20 10:10 26.67212 100.24491 7184 ft 2 kts 16°
2026-04-20 10:10 26.67235 100.24499 7186 ft 5 kts 17°
2026-04-20 10:10 26.67303 100.24523 7185 ft 14 kts 17°
2026-04-20 10:10 26.67388 100.24552 7184 ft 11 kts 17°
2026-04-20 10:11 26.67458 100.24576 7189 ft 11 kts 17°
2026-04-20 10:11 26.67539 100.24603 7185 ft 14 kts 17°
2026-04-20 10:11 26.67634 100.24636 7183 ft 15 kts 16°
2026-04-20 10:11 26.67733 100.24670 7184 ft 15 kts 17°
2026-04-20 10:12 26.67838 100.24706 7188 ft 16 kts 17°
2026-04-20 10:12 26.67951 100.24744 7186 ft 17 kts 16°
2026-04-20 10:12 26.68058 100.24780 7185 ft 15 kts 17°
2026-04-20 10:12 26.68146 100.24809 7186 ft 12 kts 17°
2026-04-20 10:13 26.68217 100.24834 7184 ft 11 kts 17°
2026-04-20 10:13 26.68288 100.24858 7184 ft 11 kts 17°
2026-04-20 10:13 26.68360 100.24883 7181 ft 11 kts 17°
2026-04-20 10:13 26.68435 100.24908 7182 ft 11 kts 17°
2026-04-20 10:14 26.68510 100.24934 7184 ft 12 kts 17°
2026-04-20 10:14 26.68589 100.24960 7186 ft 12 kts 17°
2026-04-20 10:14 26.68670 100.24987 7184 ft 12 kts 17°
2026-04-20 10:14 26.68752 100.25015 7186 ft 12 kts 17°
2026-04-20 10:15 26.68836 100.25043 7186 ft 12 kts 17°
2026-04-20 10:15 26.68909 100.25069 7188 ft 10 kts 17°
2026-04-20 10:15 26.68950 100.25039 7186 ft 7 kts 290°
2026-04-20 10:15 26.68953 100.25027 7186 ft 0 kts 287°
2026-04-20 10:16 26.68954 100.25024 7186 ft 2 kts 287°
2026-04-20 10:16 26.68965 100.24982 7186 ft 9 kts 287°
2026-04-20 10:16 26.68977 100.24917 7187 ft 7 kts 245°
2026-04-20 10:17 26.68931 100.24893 7189 ft 8 kts 197°
2026-04-20 10:17 26.68825 100.24856 7186 ft 39 kts 197°
2026-04-20 10:17 26.68320 100.24684 7190 ft 110 kts 197°
2026-04-20 10:17 26.67395 100.24378 7190 ft 164 kts 201°
2026-04-20 10:18 26.66271 100.23972 7780 ft 170 kts 204°
2026-04-20 10:18 26.65415 100.23132 8531 ft 167 kts 250°
2026-04-20 10:18 26.65390 100.21861 9063 ft 172 kts 282°
2026-04-20 10:18 26.66002 100.20632 9392 ft 192 kts 310°
2026-04-20 10:19 26.67257 100.19919 9499 ft 223 kts 350°
2026-04-20 10:19 26.68876 100.20301 9543 ft 265 kts 28°
2026-04-20 10:19 26.70219 100.21880 9921 ft 297 kts 58°
2026-04-20 10:19 26.71311 100.23968 10336 ft 324 kts 54°
2026-04-20 10:20 26.72964 100.25767 10768 ft 344 kts 27°
2026-04-20 10:20 26.75223 100.26865 11149 ft 366 kts 16°
2026-04-20 10:20 26.77743 100.27686 11456 ft 388 kts 11°
2026-04-20 10:20 26.80377 100.28391 11967 ft 400 kts 14°
2026-04-20 10:21 26.82872 100.29820 12668 ft 412 kts 38°
2026-04-20 10:21 26.84720 100.32287 13454 ft 420 kts 61°
2026-04-20 10:21 26.85608 100.35404 14150 ft 425 kts 85°
2026-04-20 10:21 26.85415 100.38691 14839 ft 426 kts 102°
2026-04-20 10:22 26.84815 100.41956 15468 ft 429 kts 103°
2026-04-20 10:22 26.84213 100.45234 16132 ft 432 kts 102°
2026-04-20 10:22 26.83680 100.48567 16749 ft 438 kts 95°
2026-04-20 10:22 26.83788 100.51983 17316 ft 442 kts 83°
2026-04-20 10:23 26.84126 100.55369 17814 ft 445 kts 85°
2026-04-20 10:23 26.84365 100.58829 18248 ft 448 kts 86°
2026-04-20 10:23 26.84519 100.62331 18680 ft 451 kts 88°
2026-04-20 10:23 26.84634 100.65854 19065 ft 455 kts 88°
2026-04-20 10:24 26.84745 100.69402 19468 ft 458 kts 88°
2026-04-20 10:24 26.84871 100.72976 19843 ft 460 kts 87°
2026-04-20 10:24 26.85019 100.76567 20190 ft 463 kts 86°
2026-04-20 10:24 26.85190 100.80183 20536 ft 465 kts 86°
2026-04-20 10:25 26.85366 100.83729 20690 ft 464 kts 86°
2026-04-20 10:25 26.85547 100.87353 20930 ft 468 kts 86°
2026-04-20 10:25 26.85738 100.91000 21223 ft 471 kts 84°
2026-04-20 10:25 26.86273 100.94616 21526 ft 472 kts 74°
2026-04-20 10:26 26.87317 100.98096 21842 ft 472 kts 65°
2026-04-20 10:26 26.88839 101.01347 22162 ft 471 kts 55°
2026-04-20 10:26 26.90784 101.04289 22449 ft 470 kts 47°
2026-04-20 10:26 26.92885 101.07113 22748 ft 472 kts 48°
2026-04-20 10:27 26.94957 101.09903 23028 ft 473 kts 48°
2026-04-20 10:27 26.97064 101.12747 23273 ft 475 kts 47°
2026-04-20 10:27 26.99180 101.15608 23496 ft 477 kts 48°
2026-04-20 10:27 27.01298 101.18481 23710 ft 479 kts 48°
2026-04-20 10:28 27.03422 101.21364 23936 ft 480 kts 47°
2026-04-20 10:28 27.05553 101.24256 24150 ft 482 kts 47°
2026-04-20 10:28 27.07691 101.27157 24343 ft 483 kts 47°
2026-04-20 10:28 27.09833 101.30062 24550 ft 484 kts 47°
2026-04-20 10:29 27.11984 101.32977 24751 ft 486 kts 47°
2026-04-20 10:29 27.14111 101.35864 24952 ft 487 kts 47°
2026-04-20 10:29 27.16268 101.38798 25141 ft 488 kts 47°
2026-04-20 10:29 27.18431 101.41743 25330 ft 489 kts 47°
2026-04-20 10:30 27.20598 101.44697 25510 ft 490 kts 47°
2026-04-20 10:30 27.22768 101.47650 25685 ft 491 kts 47°
2026-04-20 10:30 27.24961 101.50601 25874 ft 492 kts 47°
2026-04-20 10:30 27.27172 101.53546 26037 ft 494 kts 46°
2026-04-20 10:31 27.29399 101.56496 26192 ft 495 kts 46°
2026-04-20 10:31 27.31626 101.59447 26368 ft 495 kts 46°
2026-04-20 10:31 27.33816 101.62356 26583 ft 494 kts 46°
2026-04-20 10:31 27.36034 101.65312 26825 ft 494 kts 46°
2026-04-20 10:32 27.38244 101.68271 27092 ft 493 kts 47°
2026-04-20 10:32 27.40443 101.71229 27357 ft 493 kts 47°
2026-04-20 10:32 27.42639 101.74192 27639 ft 492 kts 47°
2026-04-20 10:32 27.44828 101.77145 27930 ft 491 kts 47°
2026-04-20 10:33 27.47022 101.80098 28195 ft 491 kts 47°
2026-04-20 10:33 27.49183 101.83000 28398 ft 490 kts 46°
2026-04-20 10:33 27.51375 101.85945 28587 ft 490 kts 47°
2026-04-20 10:33 27.53565 101.88887 28803 ft 490 kts 47°
2026-04-20 10:34 27.55750 101.91826 29122 ft 489 kts 46°
2026-04-20 10:34 27.57928 101.94761 29375 ft 487 kts 46°
2026-04-20 10:34 27.60099 101.97689 29681 ft 486 kts 47°
2026-04-20 10:35 27.64428 102.03541 30134 ft 486 kts 46°
2026-04-20 10:35 27.66593 102.06466 30359 ft 486 kts 46°
2026-04-20 10:35 27.68727 102.09351 30659 ft 485 kts 46°
2026-04-20 10:35 27.70888 102.12275 30826 ft 486 kts 46°
2026-04-20 10:36 27.73035 102.15223 31076 ft 487 kts 49°
2026-04-20 10:36 27.74889 102.18437 31315 ft 491 kts 58°
2026-04-20 10:36 27.76452 102.21870 31547 ft 492 kts 59°
2026-04-20 10:36 27.78006 102.25308 31790 ft 492 kts 59°
2026-04-20 10:37 27.79563 102.28745 32044 ft 491 kts 59°
2026-04-20 10:37 27.81119 102.32180 32295 ft 491 kts 59°
2026-04-20 10:37 27.82653 102.35565 32527 ft 491 kts 59°
2026-04-20 10:37 27.84207 102.38998 32768 ft 491 kts 59°
2026-04-20 10:38 27.85758 102.42429 33021 ft 490 kts 59°
2026-04-20 10:38 27.87307 102.45859 33275 ft 490 kts 59°
2026-04-20 10:38 27.88856 102.49288 33524 ft 490 kts 59°
2026-04-20 10:38 27.90405 102.52712 33748 ft 490 kts 59°
2026-04-20 10:39 27.91954 102.56142 33832 ft 489 kts 59°
2026-04-20 10:39 27.95017 102.62945 33863 ft 488 kts 59°
2026-04-20 10:40 27.98093 102.69795 33882 ft 488 kts 59°
2026-04-20 10:40 28.01162 102.76632 33895 ft 487 kts 59°
2026-04-20 10:41 28.04226 102.83465 33912 ft 486 kts 59°
2026-04-20 10:41 28.07257 102.90244 33923 ft 485 kts 60°
2026-04-20 10:42 28.10293 102.97056 33938 ft 485 kts 60°
2026-04-20 10:42 28.13329 103.03865 33946 ft 484 kts 60°
2026-04-20 10:43 28.16369 103.10676 33960 ft 484 kts 60°
2026-04-20 10:43 28.19372 103.17441 33972 ft 484 kts 60°
2026-04-20 10:44 28.22383 103.24254 33985 ft 483 kts 60°
2026-04-20 10:44 28.25397 103.31062 33993 ft 483 kts 60°
2026-04-20 10:45 28.28410 103.37868 34002 ft 482 kts 61°
2026-04-20 10:45 28.31411 103.44672 34013 ft 482 kts 61°
2026-04-20 10:46 28.34398 103.51432 34016 ft 482 kts 61°
2026-04-20 10:46 28.37392 103.58229 34024 ft 481 kts 61°
2026-04-20 10:47 28.40371 103.65028 34025 ft 481 kts 61°